User: anonymous   Login
Location: Albany
(35.0000°S, 118.0000°E)
Time: 14:54:16
(UTC-05:00)
Language:

Radarsat Rocket - Orbit

View from above orbital plane
View from above orbital plane
View from above satellite
View from above satellite

Ground track
Ground track

The orbit data is extracted from the following two-line orbital elements,

1 23711U 95059B   14350.09836172  .00000017  00000-0  12490-3 0  8324
2 23711 100.4685 332.6566 0367719 228.3556 173.3365 13.12656849915867
Epoch (UTC): 16 December 2014 02:21:38
Eccentricity: 0.0367719
inclination: 100.4685°
perigee height: 934 km
apogee height: 1492 km
right ascension of ascending node: 332.6566°
argument of perigee: 228.3556°
revolutions per day: 13.12656849
mean anomaly at epoch: 173.3365°
orbit number at epoch: 91586

The dashed part of the orbit path shows where the satellite is in the earth's shadow,  

DLR